Home   Weather   Cúcuta   Past weeks

Flag for Colombia Past Weather in Cúcuta, Colombia — Yesterday and Last 2 Weeks

Now
79 °F

Fog.


Feels Like: 82 °F
Forecast: 73 / 99 °F
Wind: 2 mph from North

Location: Cucuta / Camilo Daza

Current Time: Apr 26, 2017 at 1:17:55 am

Latest Report: Apr 26, 2017 at 12:00 am


Visibility: 4 mi

Pressure: 29.86 "Hg

Humidity: 89%

Dew Point: 75 °F

Location of CúcutaLocation

Past Weather in Cúcuta — Graph

°F

Cúcuta Temperature Yesterday

Maximum temperature yesterday: 90 °F (at 3:00 pm)
Minimum temperature yesterday: 75 °F (at 5:00 am)
Average temperature yesterday: 81 °F

High & Low Weather Summary for the Past Weeks

 TemperatureHumidityPressure
High95 °F (Apr 15, 2:00 pm)100% (Apr 11, 7:00 am)29.98 "Hg (Apr 11, 7:00 am)
Low72 °F (Apr 20, 8:00 pm)34% (Apr 15, 3:00 pm)29.72 "Hg (Apr 23, 3:00 pm)
Average81 °F75%29.87 "Hg
* Reported Apr 11 12:00 am — Apr 26 12:00 am, Cúcuta, Weather by CustomWeather, © 2017

Note: Actual official high and low records may vary slightly from our data, if they occured in-between our weather recording intervals... More about our weather records

Advertising

Cúcuta Weather History for the Previous 24 Hours

Scroll right to see more
 ConditionsComfort  
Time TempWeatherWind HumidityBarometerVisibility
12:00 am
Wed, Apr 26
79 °FFog.2 mph89%29.86 "Hg4 mi
11:00 pm
Tue, Apr 25
77 °FFog.5 mph100%29.89 "Hg4 mi
10:00 pm77 °FThunderstorms. Partly cloudy.8 mph94%29.91 "Hg4 mi
9:00 pm79 °FThunderstorms. Partly cloudy.2 mph94%29.89 "Hg4 mi
8:30 pm77 °FThunderstorms. Partly cloudy.2 mph100%29.88 "Hg4 mi
8:00 pm77 °FStrong thunderstorms. Partly cloudy.9 mph79%29.86 "Hg3 mi
7:00 pm82 °FThunderstorms. Partly cloudy.10 mph79%29.82 "Hg6 mi
6:00 pm84 °FPartly cloudy.9 mph74%29.80 "HgN/A
5:00 pm86 °FBroken clouds.9 mph70%29.77 "HgN/A
4:00 pm86 °FScattered clouds.13 mph70%29.74 "HgN/A
3:00 pm90 °FScattered clouds.12 mph59%29.75 "HgN/A
2:00 pm88 °FScattered clouds.12 mph62%29.79 "HgN/A
1:00 pm88 °FScattered clouds.12 mph62%29.83 "HgN/A
12:00 pm86 °FScattered clouds.8 mph66%29.88 "HgN/A
11:00 am86 °FScattered clouds.6 mph66%29.91 "HgN/A
10:00 am82 °FFog.3 mph74%29.93 "HgN/A
9:00 am79 °FFog.7 mph84%29.93 "HgN/A
8:00 am79 °FFog.2 mph79%29.92 "HgN/A
7:00 am75 °FFog.5 mph89%29.89 "HgN/A
6:00 am75 °FBroken clouds.3 mph94%29.88 "Hg2 mi
5:30 am75 °FPassing clouds.3 mph94%29.87 "Hg2 mi
5:00 am75 °FPassing clouds.9 mph89%29.87 "Hg5 mi
1:00 am79 °FPassing clouds.2 mph74%29.82 "HgN/A
Weather by CustomWeather, © 2017

See weather overviewHow to use our weather pages